Location: Big Sable Point
(44.0575°N, 86.5149°W)
Time: 16:22:09
(UTC-05:00)

Envisat - Visible Passes

Search period start: 09 December 2018 00:00
Search period end: 19 December 2018 00:00
Orbit: 764 x 766 km, 98.2° (Epoch: 09 December)

Date Brightness Start Highest point End Pass type
(mag) Time Alt. Az. Time Alt. Az. Time Alt. Az.
09 Dec 3.1 19:02:18 10° SE 19:07:09 48° ENE 19:12:02 10° N visible
09 Dec 5.2 20:42:32 10° SW 20:46:25 22° W 20:50:19 10° NW visible
10 Dec 6.0 07:11:08 10° NE 07:13:55 15° E 07:16:42 10° ESE visible
10 Dec 4.0 18:26:43 10° ESE 18:30:42 24° ENE 18:34:40 10° NNE visible
10 Dec 3.9 20:04:33 10° S 20:09:25 46° W 20:14:20 10° NNW visible
11 Dec 4.7 17:52:36 10° ENE 17:54:26 12° ENE 17:56:16 10° NE visible
11 Dec 2.8 19:27:33 10° SSE 19:32:37 82° ENE 19:37:43 10° NNW visible
11 Dec 5.9 21:10:09 10° WSW 21:12:16 12° W 21:14:24 10° WNW visible
12 Dec 5.5 07:35:34 10° NE 07:39:45 25° E 07:43:54 10° SSE visible
12 Dec 3.4 18:51:21 10° SE 18:56:01 38° ENE 19:00:43 10° N visible
12 Dec 4.9 20:30:50 10° SSW 20:35:07 27° W 20:39:26 10° NW visible
13 Dec 6.2 07:00:59 10° ENE 07:02:34 11° E 07:04:10 10° ESE visible
13 Dec 4.2 18:16:04 10° ESE 18:19:37 19° ENE 18:23:10 10° NNE visible
13 Dec 3.5 19:53:11 10° S 19:58:11 59° W 20:03:13 10° NNW visible
14 Dec 2.9 19:16:26 10° SSE 19:21:27 65° ENE 19:26:30 10° N visible
14 Dec 5.6 20:57:52 10° SW 21:00:56 16° W 21:04:01 10° NW visible
15 Dec 5.8 07:24:43 10° NE 07:28:27 20° E 07:32:09 10° SE visible
15 Dec 3.6 18:40:29 10° SE 18:44:54 31° ENE 18:49:21 10° N visible
15 Dec 4.5 20:19:16 10° SSW 20:23:51 34° W 20:28:28 10° NNW visible
16 Dec 4.4 18:05:34 10° E 18:08:33 16° ENE 18:11:34 10° NNE visible
16 Dec 3.1 19:41:54 10° S 19:46:58 74° WSW 19:52:04 10° NNW visible
17 Dec 3.0 19:05:23 10° SSE 19:10:17 52° ENE 19:15:14 10° N visible
17 Dec 5.3 20:45:56 10° SW 20:49:37 20° W 20:53:19 10° NW visible
18 Dec 5.9 07:14:01 10° NE 07:17:08 16° E 07:20:13 10° SE visible
18 Dec 3.9 18:29:41 10° ESE 18:33:48 26° ENE 18:37:56 10° N visible
18 Dec 4.1 20:07:47 10° S 20:12:35 42° W 20:17:26 10° NNW visible
